Time,TemperatureF,DewpointF,PressureIn,WindDirection,WindDirectionDegrees,WindSpeedMPH,WindSpeedGustMPH,Humidity,HourlyPrecipIn,Conditions,Clouds,dailyrainin,SoftwareType,DateUTC
2013-06-15 00:00:00,85.0,77.0,29.91,SSW,209,0.0,1.0,77,0.00,,,0.00,Wunderground v.1.15,2013-06-15 05:00:00,
2013-06-15 00:10:00,84.9,76.9,29.91,SSW,209,0.0,1.0,77,0.00,,,0.00,Wunderground v.1.15,2013-06-15 05:10:00,
2013-06-15 00:20:00,84.8,77.2,29.91,SSW,209,0.0,1.0,78,0.00,,,0.00,Wunderground v.1.15,2013-06-15 05:20:00,
2013-06-15 00:30:00,84.6,77.4,29.91,SSW,209,0.0,1.0,79,0.00,,,0.00,Wunderground v.1.15,2013-06-15 05:30:00,
2013-06-15 00:40:00,84.2,77.4,29.92,SSW,209,1.0,1.0,80,0.00,,,0.00,Wunderground v.1.15,2013-06-15 05:40:00,
2013-06-15 00:49:00,83.9,77.4,29.92,SSW,209,0.0,1.0,81,0.00,,,0.00,Wunderground v.1.15,2013-06-15 05:49:00,
2013-06-15 01:00:00,83.8,78.1,29.92,SSW,209,0.0,1.0,83,0.00,,,0.00,Wunderground v.1.15,2013-06-15 06:00:00,
2013-06-15 01:10:00,83.6,77.9,29.92,SSW,209,0.0,2.0,83,0.00,,,0.00,Wunderground v.1.15,2013-06-15 06:10:00,
2013-06-15 01:19:00,83.4,78.1,29.92,SSW,209,1.0,1.0,84,0.00,,,0.00,Wunderground v.1.15,2013-06-15 06:19:00,
2013-06-15 01:25:00,83.4,78.1,29.92,SSW,209,2.0,4.0,84,0.00,,,0.00,Wunderground v.1.15,2013-06-15 06:25:00,
2013-06-15 01:34:00,83.5,78.2,29.92,SSW,209,1.0,5.0,84,0.00,,,0.00,Wunderground v.1.15,2013-06-15 06:34:00,
2013-06-15 01:40:00,83.5,78.2,29.92,SSW,209,2.0,4.0,84,0.00,,,0.00,Wunderground v.1.15,2013-06-15 06:40:00,
2013-06-15 01:50:00,83.5,78.2,29.92,SSW,209,2.0,2.0,84,0.00,,,0.00,Wunderground v.1.15,2013-06-15 06:50:00,
2013-06-15 02:00:00,83.5,78.2,29.92,SSW,209,2.0,2.0,84,0.00,,,0.00,Wunderground v.1.15,2013-06-15 07:00:00,
2013-06-15 02:10:00,83.4,78.4,29.91,SSW,209,1.0,6.0,85,0.00,,,0.00,Wunderground v.1.15,2013-06-15 07:10:00,
2013-06-15 02:20:00,83.3,78.3,29.91,SSW,209,1.0,1.0,85,0.00,,,0.00,Wunderground v.1.15,2013-06-15 07:20:00,
2013-06-15 02:30:00,83.1,78.1,29.91,SSW,209,1.0,1.0,85,0.00,,,0.00,Wunderground v.1.15,2013-06-15 07:30:00,
2013-06-15 02:35:00,83.0,78.4,29.91,SSW,209,1.0,1.0,86,0.00,,,0.00,Wunderground v.1.15,2013-06-15 07:35:00,
2013-06-15 02:45:00,82.8,78.5,29.91,SSW,209,0.0,1.0,87,0.00,,,0.00,Wunderground v.1.15,2013-06-15 07:45:00,
2013-06-15 02:50:00,82.8,78.5,29.91,SSW,209,0.0,1.0,87,0.00,,,0.00,Wunderground v.1.15,2013-06-15 07:50:00,
2013-06-15 03:00:00,82.7,78.4,29.91,SSW,209,1.0,1.0,87,0.00,,,0.00,Wunderground v.1.15,2013-06-15 08:00:00,
2013-06-15 03:10:00,82.5,78.2,29.90,SSW,209,1.0,3.0,87,0.00,,,0.00,Wunderground v.1.15,2013-06-15 08:10:00,
2013-06-15 03:20:00,82.4,78.1,29.90,SSW,209,2.0,2.0,87,0.00,,,0.00,Wunderground v.1.15,2013-06-15 08:20:00,
2013-06-15 03:30:00,82.4,78.1,29.90,SSW,207,2.0,2.0,87,0.00,,,0.00,Wunderground v.1.15,2013-06-15 08:30:00,
2013-06-15 03:35:00,82.3,78.0,29.90,SSW,207,1.0,3.0,87,0.00,,,0.00,Wunderground v.1.15,2013-06-15 08:35:00,
2013-06-15 03:45:00,82.3,78.4,29.90,SSW,207,1.0,1.0,88,0.00,,,0.00,Wunderground v.1.15,2013-06-15 08:45:00,
2013-06-15 03:54:00,82.1,78.2,29.90,SSW,207,1.0,1.0,88,0.00,,,0.00,Wunderground v.1.15,2013-06-15 08:54:00,
2013-06-15 04:00:00,82.0,78.1,29.90,SSW,207,1.0,1.0,88,0.00,,,0.00,Wunderground v.1.15,2013-06-15 09:00:00,
2013-06-15 04:05:00,81.8,78.2,29.90,SSW,207,3.0,3.0,89,0.00,,,0.00,Wunderground v.1.15,2013-06-15 09:05:00,
2013-06-15 04:10:00,81.7,78.1,29.90,SSW,207,2.0,4.0,89,0.00,,,0.00,Wunderground v.1.15,2013-06-15 09:10:00,
2013-06-15 04:15:00,81.7,78.1,29.90,SSW,207,1.0,4.0,89,0.00,,,0.00,Wunderground v.1.15,2013-06-15 09:15:00,
2013-06-15 04:25:00,81.5,77.9,29.91,SSW,207,3.0,4.0,89,0.00,,,0.00,Wunderground v.1.15,2013-06-15 09:25:00,
2013-06-15 04:30:00,81.1,77.5,29.91,SSW,207,4.0,4.0,89,0.00,,,0.00,Wunderground v.1.15,2013-06-15 09:30:00,
2013-06-15 04:40:00,80.5,73.8,29.91,WSW,242,9.0,9.0,80,0.00,,,0.00,Wunderground v.1.15,2013-06-15 09:40:00,
2013-06-15 04:45:00,79.8,71.6,29.91,SW,221,11.0,11.0,76,0.00,,,0.00,Wunderground v.1.15,2013-06-15 09:45:00,
2013-06-15 04:50:00,78.8,70.6,29.90,SW,226,12.0,12.0,76,0.00,,,0.00,Wunderground v.1.15,2013-06-15 09:50:00,
2013-06-15 04:55:00,77.8,70.0,29.90,WSW,239,10.0,12.0,77,0.00,,,0.00,Wunderground v.1.15,2013-06-15 09:55:00,
2013-06-15 05:05:00,76.9,69.5,29.90,WSW,240,4.0,7.0,78,0.00,,,0.00,Wunderground v.1.15,2013-06-15 10:05:00,
2013-06-15 05:10:00,76.5,68.7,29.90,WSW,242,4.0,6.0,77,0.00,,,0.00,Wunderground v.1.15,2013-06-15 10:10:00,
2013-06-15 05:15:00,76.3,68.9,29.90,WSW,242,3.0,6.0,78,0.00,,,0.00,Wunderground v.1.15,2013-06-15 10:15:00,
2013-06-15 05:25:00,75.9,68.9,29.89,WSW,242,2.0,3.0,79,0.00,,,0.00,Wunderground v.1.15,2013-06-15 10:25:00,
2013-06-15 05:35:00,76.0,69.4,29.89,WSW,242,0.0,1.0,80,0.00,,,0.00,Wunderground v.1.15,2013-06-15 10:35:00,
2013-06-15 05:40:00,76.0,69.7,29.90,WSW,242,0.0,1.0,81,0.00,,,0.00,Wunderground v.1.15,2013-06-15 10:40:00,
2013-06-15 05:50:00,76.0,69.7,29.89,WSW,242,0.0,5.0,81,0.00,,,0.00,Wunderground v.1.15,2013-06-15 10:50:00,
2013-06-15 06:00:00,75.3,70.8,29.90,WSW,247,2.0,4.0,86,0.00,,,0.01,Wunderground v.1.15,2013-06-15 11:00:00,
2013-06-15 06:09:00,75.0,69.8,29.90,South,170,3.0,3.0,84,0.00,,,0.01,Wunderground v.1.15,2013-06-15 11:09:00,
2013-06-15 06:15:00,74.9,70.1,29.89,South,170,0.0,3.0,85,0.00,,,0.01,Wunderground v.1.15,2013-06-15 11:15:00,
2013-06-15 06:24:00,74.9,71.4,29.91,South,170,0.0,1.0,89,0.00,,,0.01,Wunderground v.1.15,2013-06-15 11:24:00,
2013-06-15 06:30:00,74.5,70.4,29.91,South,170,1.0,1.0,87,0.00,,,0.01,Wunderground v.1.15,2013-06-15 11:30:00,
2013-06-15 06:35:00,74.9,71.4,29.92,South,170,1.0,1.0,89,0.00,,,0.01,Wunderground v.1.15,2013-06-15 11:35:00,
2013-06-15 06:45:00,75.4,71.6,29.93,South,170,2.0,6.0,88,0.00,,,0.01,Wunderground v.1.15,2013-06-15 11:45:00,
2013-06-15 06:55:00,75.5,71.4,29.94,South,170,2.0,3.0,87,0.00,,,0.01,Wunderground v.1.15,2013-06-15 11:55:00,
2013-06-15 07:05:00,75.6,71.5,29.94,South,170,1.0,2.0,87,0.00,,,0.01,Wunderground v.1.15,2013-06-15 12:05:00,
2013-06-15 07:10:00,75.7,71.6,29.94,South,170,0.0,1.0,87,0.00,,,0.01,Wunderground v.1.15,2013-06-15 12:10:00,
2013-06-15 07:19:00,76.5,72.3,29.95,South,170,0.0,1.0,87,0.00,,,0.01,Wunderground v.1.15,2013-06-15 12:19:00,
2013-06-15 07:25:00,76.8,72.6,29.95,South,170,1.0,1.0,87,0.00,,,0.01,Wunderground v.1.15,2013-06-15 12:25:00,
2013-06-15 07:34:00,77.1,73.3,29.95,South,170,3.0,7.0,88,0.00,,,0.01,Wunderground v.1.15,2013-06-15 12:34:00,
2013-06-15 07:40:00,77.2,73.4,29.95,South,170,4.0,5.0,88,0.00,,,0.01,Wunderground v.1.15,2013-06-15 12:40:00,
2013-06-15 07:50:00,77.2,73.0,29.95,South,170,1.0,1.0,87,0.00,,,0.01,Wunderground v.1.15,2013-06-15 12:50:00,
2013-06-15 07:55:00,77.5,73.3,29.95,South,170,0.0,1.0,87,0.00,,,0.01,Wunderground v.1.15,2013-06-15 12:55:00,
2013-06-15 08:05:00,77.9,73.4,29.95,South,170,2.0,4.0,86,0.00,,,0.01,Wunderground v.1.15,2013-06-15 13:05:00,
2013-06-15 08:15:00,78.3,74.1,29.95,South,170,2.0,3.0,87,0.00,,,0.01,Wunderground v.1.15,2013-06-15 13:15:00,
2013-06-15 08:25:00,78.6,74.1,29.95,South,170,4.0,5.0,86,0.00,,,0.01,Wunderground v.1.15,2013-06-15 13:25:00,
2013-06-15 08:35:00,79.0,74.5,29.96,South,170,2.0,4.0,86,0.00,,,0.01,Wunderground v.1.15,2013-06-15 13:35:00,
2013-06-15 08:40:00,79.2,75.0,29.97,South,170,2.0,2.0,87,0.00,,,0.01,Wunderground v.1.15,2013-06-15 13:40:00,
2013-06-15 08:45:00,79.4,74.8,29.97,South,170,2.0,2.0,86,0.00,,,0.01,Wunderground v.1.15,2013-06-15 13:45:00,
2013-06-15 08:55:00,79.8,75.2,29.97,South,170,2.0,5.0,86,0.00,,,0.01,Wunderground v.1.15,2013-06-15 13:55:00,
2013-06-15 09:00:00,80.0,75.1,29.97,South,170,3.0,3.0,85,0.00,,,0.01,Wunderground v.1.15,2013-06-15 14:00:00,
2013-06-15 09:09:00,80.5,75.2,29.98,South,170,4.0,7.0,84,0.00,,,0.01,Wunderground v.1.15,2013-06-15 14:09:00,
2013-06-15 09:15:00,80.8,75.5,29.98,South,170,5.0,7.0,84,0.00,,,0.01,Wunderground v.1.15,2013-06-15 14:15:00,
2013-06-15 09:24:00,81.1,75.8,29.98,South,170,5.0,7.0,84,0.00,,,0.01,Wunderground v.1.15,2013-06-15 14:24:00,
2013-06-15 09:30:00,81.1,75.1,29.98,South,170,4.0,7.0,82,0.00,,,0.01,Wunderground v.1.15,2013-06-15 14:30:00,
2013-06-15 09:40:00,81.3,74.9,29.98,South,170,5.0,5.0,81,0.00,,,0.01,Wunderground v.1.15,2013-06-15 14:40:00,
2013-06-15 09:45:00,81.4,74.3,29.98,SSE,158,6.0,9.0,79,0.00,,,0.01,Wunderground v.1.15,2013-06-15 14:45:00,
2013-06-15 09:54:00,81.7,74.2,29.99,SSE,161,5.0,6.0,78,0.00,,,0.01,Wunderground v.1.15,2013-06-15 14:54:00,
2013-06-15 10:00:00,81.9,74.4,29.98,SSE,163,5.0,5.0,78,0.00,,,0.01,Wunderground v.1.15,2013-06-15 15:00:00,
2013-06-15 10:10:00,82.2,74.3,29.98,SSE,167,6.0,8.0,77,0.00,,,0.01,Wunderground v.1.15,2013-06-15 15:10:00,
2013-06-15 10:20:00,82.6,75.0,29.98,SSE,162,7.0,8.0,78,0.00,,,0.01,Wunderground v.1.15,2013-06-15 15:20:00,
2013-06-15 10:29:00,83.2,75.2,29.97,SSE,147,7.0,12.0,77,0.00,,,0.01,Wunderground v.1.15,2013-06-15 15:29:00,
2013-06-15 10:35:00,83.3,74.5,29.97,SSE,148,8.0,12.0,75,0.00,,,0.01,Wunderground v.1.15,2013-06-15 15:35:00,
2013-06-15 10:45:00,83.5,74.7,29.97,SSE,147,7.0,9.0,75,0.00,,,0.01,Wunderground v.1.15,2013-06-15 15:45:00,
2013-06-15 10:55:00,83.3,75.3,29.97,SE,146,8.0,8.0,77,0.00,,,0.01,Wunderground v.1.15,2013-06-15 15:55:00,
2013-06-15 11:05:00,84.4,76.0,29.96,SSE,156,7.0,8.0,76,0.00,,,0.01,Wunderground v.1.15,2013-06-15 16:05:00,
2013-06-15 11:15:00,84.7,75.5,29.96,SSE,160,7.0,7.0,74,0.00,,,0.01,Wunderground v.1.15,2013-06-15 16:15:00,
2013-06-15 11:20:00,84.8,76.0,29.96,SSE,166,7.0,7.0,75,0.00,,,0.01,Wunderground v.1.15,2013-06-15 16:20:00,
2013-06-15 11:30:00,85.6,76.4,29.96,SSE,155,6.0,6.0,74,0.00,,,0.01,Wunderground v.1.15,2013-06-15 16:30:00,
2013-06-15 11:40:00,86.5,76.0,29.96,SSE,165,6.0,6.0,71,0.00,,,0.01,Wunderground v.1.15,2013-06-15 16:40:00,
2013-06-15 11:50:00,86.6,76.1,29.96,SSE,159,6.0,7.0,71,0.00,,,0.01,Wunderground v.1.15,2013-06-15 16:50:00,
2013-06-15 11:55:00,86.5,76.4,29.96,SSE,155,6.0,7.0,72,0.00,,,0.01,Wunderground v.1.15,2013-06-15 16:55:00,
2013-06-15 12:04:00,86.3,76.2,29.96,SSE,162,6.0,12.0,72,0.00,,,0.01,Wunderground v.1.15,2013-06-15 17:04:00,
2013-06-15 12:10:00,86.0,75.5,29.95,South,169,6.0,12.0,71,0.00,,,0.01,Wunderground v.1.15,2013-06-15 17:10:00,
2013-06-15 12:20:00,86.2,76.1,29.95,South,173,5.0,5.0,72,0.00,,,0.01,Wunderground v.1.15,2013-06-15 17:20:00,
2013-06-15 12:30:00,86.5,76.4,29.95,South,173,5.0,12.0,72,0.00,,,0.01,Wunderground v.1.15,2013-06-15 17:30:00,
2013-06-15 12:35:00,86.3,75.8,29.95,South,176,7.0,12.0,71,0.00,,,0.01,Wunderground v.1.15,2013-06-15 17:35:00,
2013-06-15 12:45:00,87.0,76.0,29.95,South,186,5.0,12.0,70,0.00,,,0.01,Wunderground v.1.15,2013-06-15 17:45:00,
2013-06-15 12:55:00,86.9,75.9,29.95,SSW,193,5.0,12.0,70,0.00,,,0.01,Wunderground v.1.15,2013-06-15 17:55:00,
2013-06-15 13:05:00,86.6,76.5,29.94,SSW,193,4.0,12.0,72,0.00,,,0.01,Wunderground v.1.15,2013-06-15 18:05:00,
2013-06-15 13:10:00,86.8,76.7,29.94,SSW,192,4.0,4.0,72,0.00,,,0.01,Wunderground v.1.15,2013-06-15 18:10:00,
2013-06-15 13:19:00,87.6,76.2,29.94,South,191,4.0,4.0,69,0.00,,,0.01,Wunderground v.1.15,2013-06-15 18:19:00,
2013-06-15 13:25:00,87.9,76.9,29.94,South,188,4.0,12.0,70,0.00,,,0.01,Wunderground v.1.15,2013-06-15 18:25:00,
2013-06-15 13:35:00,88.5,76.1,29.94,South,183,3.0,12.0,67,0.00,,,0.01,Wunderground v.1.15,2013-06-15 18:35:00,
2013-06-15 13:40:00,88.5,76.1,29.93,South,181,4.0,4.0,67,0.00,,,0.01,Wunderground v.1.15,2013-06-15 18:40:00,
2013-06-15 13:50:00,88.2,75.9,29.93,South,180,4.0,12.0,67,0.00,,,0.01,Wunderground v.1.15,2013-06-15 18:50:00,
2013-06-15 13:55:00,87.9,76.5,29.93,South,180,4.0,12.0,69,0.00,,,0.01,Wunderground v.1.15,2013-06-15 18:55:00,
2013-06-15 14:05:00,88.0,76.1,29.93,South,180,3.0,12.0,68,0.00,,,0.01,Wunderground v.1.15,2013-06-15 19:05:00,
2013-06-15 14:15:00,88.0,76.5,29.93,South,178,5.0,7.0,69,0.00,,,0.01,Wunderground v.1.15,2013-06-15 19:15:00,
2013-06-15 14:24:00,88.4,76.5,29.93,South,177,5.0,6.0,68,0.00,,,0.01,Wunderground v.1.15,2013-06-15 19:24:00,
2013-06-15 14:30:00,88.5,76.1,29.93,South,176,5.0,12.0,67,0.00,,,0.01,Wunderground v.1.15,2013-06-15 19:30:00,
2013-06-15 14:35:00,88.5,76.1,29.93,South,175,4.0,12.0,67,0.00,,,0.01,Wunderground v.1.15,2013-06-15 19:35:00,
2013-06-15 14:44:00,88.3,76.8,29.93,South,175,3.0,12.0,69,0.00,,,0.01,Wunderground v.1.15,2013-06-15 19:44:00,
2013-06-15 14:50:00,88.4,76.5,29.92,South,175,2.0,12.0,68,0.00,,,0.01,Wunderground v.1.15,2013-06-15 19:50:00,
2013-06-15 15:00:00,88.3,75.9,29.92,South,175,3.0,12.0,67,0.00,,,0.01,Wunderground v.1.15,2013-06-15 20:00:00,
2013-06-15 15:10:00,88.4,75.6,29.92,South,175,2.0,2.0,66,0.00,,,0.01,Wunderground v.1.15,2013-06-15 20:10:00,
2013-06-15 15:20:00,88.6,76.2,29.92,South,175,2.0,12.0,67,0.00,,,0.01,Wunderground v.1.15,2013-06-15 20:20:00,
2013-06-15 15:30:00,88.9,76.1,29.92,South,175,3.0,12.0,66,0.00,,,0.01,Wunderground v.1.15,2013-06-15 20:30:00,
2013-06-15 15:40:00,88.9,76.1,29.91,South,175,3.0,12.0,66,0.00,,,0.01,Wunderground v.1.15,2013-06-15 20:40:00,
2013-06-15 15:50:00,89.1,75.8,29.91,South,175,3.0,3.0,65,0.00,,,0.01,Wunderground v.1.15,2013-06-15 20:50:00,
2013-06-15 16:00:00,89.7,77.7,29.90,South,175,4.0,4.0,68,0.00,,,0.01,Wunderground v.1.15,2013-06-15 21:00:00,
2013-06-15 16:09:00,89.5,76.6,29.90,South,175,4.0,4.0,66,0.00,,,0.01,Wunderground v.1.15,2013-06-15 21:09:00,
2013-06-15 16:15:00,89.0,76.2,29.89,South,175,3.0,12.0,66,0.00,,,0.01,Wunderground v.1.15,2013-06-15 21:15:00,
2013-06-15 16:20:00,89.1,77.6,29.89,South,175,2.0,2.0,69,0.00,,,0.01,Wunderground v.1.15,2013-06-15 21:20:00,
2013-06-15 16:30:00,89.1,76.7,29.90,South,175,3.0,12.0,67,0.00,,,0.01,Wunderground v.1.15,2013-06-15 21:30:00,
2013-06-15 16:39:00,89.0,76.6,29.90,South,175,2.0,12.0,67,0.00,,,0.01,Wunderground v.1.15,2013-06-15 21:39:00,
2013-06-15 16:45:00,88.9,77.0,29.90,South,175,2.0,12.0,68,0.00,,,0.01,Wunderground v.1.15,2013-06-15 21:45:00,
2013-06-15 16:55:00,88.9,76.5,29.89,South,175,2.0,12.0,67,0.00,,,0.01,Wunderground v.1.15,2013-06-15 21:55:00,
2013-06-15 17:04:00,88.8,77.3,29.89,South,175,0.0,12.0,69,0.00,,,0.01,Wunderground v.1.15,2013-06-15 22:04:00,
2013-06-15 17:10:00,88.7,76.3,29.89,South,175,0.0,12.0,67,0.00,,,0.01,Wunderground v.1.15,2013-06-15 22:10:00,
2013-06-15 17:20:00,84.3,69.4,29.90,West,263,5.0,15.0,61,0.00,,,0.01,Wunderground v.1.15,2013-06-15 22:20:00,
2013-06-15 17:30:00,79.3,69.5,29.89,West,278,8.0,8.0,72,0.00,,,0.01,Wunderground v.1.15,2013-06-15 22:30:00,
2013-06-15 17:40:00,80.3,70.9,29.89,West,277,2.0,12.0,73,0.00,,,0.01,Wunderground v.1.15,2013-06-15 22:40:00,
2013-06-15 17:45:00,81.0,71.1,29.89,West,278,2.0,12.0,72,0.00,,,0.01,Wunderground v.1.15,2013-06-15 22:45:00,
2013-06-15 17:54:00,81.6,71.7,29.88,WNW,303,3.0,12.0,72,0.00,,,0.01,Wunderground v.1.15,2013-06-15 22:54:00,
2013-06-15 18:00:00,82.5,72.6,29.87,WNW,303,2.0,2.0,72,0.00,,,0.01,Wunderground v.1.15,2013-06-15 23:00:00,
2013-06-15 18:10:00,83.7,73.3,29.87,NW,311,2.0,2.0,71,0.00,,,0.01,Wunderground v.1.15,2013-06-15 23:10:00,
2013-06-15 18:19:00,85.1,74.2,29.86,NW,311,1.0,12.0,70,0.00,,,0.01,Wunderground v.1.15,2013-06-15 23:19:00,
2013-06-15 18:25:00,85.5,74.2,29.86,NW,311,2.0,12.0,69,0.00,,,0.01,Wunderground v.1.15,2013-06-15 23:25:00,
2013-06-15 18:35:00,85.2,73.9,29.87,NW,311,1.0,12.0,69,0.00,,,0.01,Wunderground v.1.15,2013-06-15 23:35:00,
2013-06-15 18:40:00,85.1,75.1,29.87,NW,311,0.0,12.0,72,0.00,,,0.01,Wunderground v.1.15,2013-06-15 23:40:00,
2013-06-15 18:50:00,84.4,74.8,29.88,NW,319,3.0,12.0,73,0.00,,,0.01,Wunderground v.1.15,2013-06-15 23:50:00,
2013-06-15 18:59:00,83.1,73.5,29.88,NW,319,3.0,12.0,73,0.00,,,0.01,Wunderground v.1.15,2013-06-15 23:59:00,
2013-06-15 19:05:00,82.7,74.4,29.88,NW,322,4.0,12.0,76,0.00,,,0.01,Wunderground v.1.15,2013-06-16 00:05:00,
2013-06-15 19:14:00,83.1,75.1,29.90,North,11,4.0,12.0,77,0.00,,,0.01,Wunderground v.1.15,2013-06-16 00:14:00,
2013-06-15 19:20:00,83.2,73.2,29.90,East,93,4.0,4.0,72,0.00,,,0.01,Wunderground v.1.15,2013-06-16 00:20:00,
2013-06-15 19:25:00,82.3,72.0,29.90,East,88,4.0,12.0,71,0.00,,,0.01,Wunderground v.1.15,2013-06-16 00:25:00,
2013-06-15 19:34:00,81.1,73.2,29.90,ESE,102,3.0,9.0,77,0.00,,,0.01,Wunderground v.1.15,2013-06-16 00:34:00,
2013-06-15 19:40:00,80.9,71.4,29.90,ESE,111,5.0,13.0,73,0.00,,,0.01,Wunderground v.1.15,2013-06-16 00:40:00,
2013-06-15 19:50:00,80.3,71.3,29.89,ESE,112,5.0,12.0,74,0.00,,,0.01,Wunderground v.1.15,2013-06-16 00:50:00,
2013-06-15 19:59:00,79.9,71.3,29.90,ESE,117,4.0,12.0,75,0.00,,,0.01,Wunderground v.1.15,2013-06-16 00:59:00,
2013-06-15 20:05:00,79.7,71.5,29.89,ESE,119,4.0,12.0,76,0.00,,,0.01,Wunderground v.1.15,2013-06-16 01:05:00,
2013-06-15 20:15:00,79.2,71.0,29.90,ESE,118,1.0,3.0,76,0.00,,,0.01,Wunderground v.1.15,2013-06-16 01:15:00,
2013-06-15 20:25:00,78.8,71.4,29.90,ESE,117,0.0,12.0,78,0.00,,,0.01,Wunderground v.1.15,2013-06-16 01:25:00,
2013-06-15 20:35:00,78.3,71.2,29.89,ESE,117,0.0,12.0,79,0.00,,,0.01,Wunderground v.1.15,2013-06-16 01:35:00,
2013-06-15 20:44:00,77.6,71.3,29.90,ESE,115,1.0,12.0,81,0.00,,,0.01,Wunderground v.1.15,2013-06-16 01:44:00,
2013-06-15 20:50:00,77.1,70.8,29.90,ESE,115,1.0,1.0,81,0.00,,,0.01,Wunderground v.1.15,2013-06-16 01:50:00,
2013-06-15 20:55:00,76.8,71.2,29.90,ESE,115,0.0,12.0,83,0.00,,,0.01,Wunderground v.1.15,2013-06-16 01:55:00,
2013-06-15 21:05:00,76.8,71.6,29.91,ESE,115,0.0,12.0,84,0.00,,,0.01,Wunderground v.1.15,2013-06-16 02:05:00,
2013-06-15 21:15:00,76.7,71.5,29.91,ESE,115,0.0,12.0,84,0.00,,,0.01,Wunderground v.1.15,2013-06-16 02:15:00,
2013-06-15 21:25:00,76.6,71.4,29.91,ESE,115,1.0,12.0,84,0.00,,,0.01,Wunderground v.1.15,2013-06-16 02:25:00,
2013-06-15 21:30:00,76.6,71.4,29.92,ESE,115,0.0,12.0,84,0.00,,,0.01,Wunderground v.1.15,2013-06-16 02:30:00,
2013-06-15 21:35:00,76.7,71.5,29.91,ESE,115,0.0,12.0,84,0.00,,,0.01,Wunderground v.1.15,2013-06-16 02:35:00,
2013-06-15 21:45:00,76.9,71.3,29.91,ESE,115,0.0,12.0,83,0.00,,,0.01,Wunderground v.1.15,2013-06-16 02:45:00,
2013-06-15 21:55:00,76.8,70.9,29.92,ESE,115,0.0,12.0,82,0.00,,,0.01,Wunderground v.1.15,2013-06-16 02:55:00,
2013-06-15 22:00:00,76.7,70.8,29.92,ESE,115,0.0,12.0,82,0.00,,,0.01,Wunderground v.1.15,2013-06-16 03:00:00,
2013-06-15 22:10:00,76.5,70.9,29.92,ESE,115,1.0,1.0,83,0.00,,,0.01,Wunderground v.1.15,2013-06-16 03:10:00,
2013-06-15 22:20:00,76.5,71.3,29.92,ESE,115,1.0,1.0,84,0.00,,,0.01,Wunderground v.1.15,2013-06-16 03:20:00,
2013-06-15 22:25:00,76.6,71.7,29.92,ESE,115,1.0,2.0,85,0.00,,,0.01,Wunderground v.1.15,2013-06-16 03:25:00,
2013-06-15 22:35:00,76.5,72.0,29.93,ESE,115,0.0,12.0,86,0.00,,,0.01,Wunderground v.1.15,2013-06-16 03:35:00,
2013-06-15 22:40:00,76.6,72.1,29.93,ESE,115,1.0,12.0,86,0.00,,,0.01,Wunderground v.1.15,2013-06-16 03:40:00,
2013-06-15 22:50:00,76.7,72.2,29.93,ESE,115,1.0,1.0,86,0.00,,,0.01,Wunderground v.1.15,2013-06-16 03:50:00,
2013-06-15 23:00:00,76.5,72.0,29.94,ESE,115,0.0,12.0,86,0.00,,,0.01,Wunderground v.1.15,2013-06-16 04:00:00,
2013-06-15 23:05:00,76.6,72.4,29.94,ESE,115,0.0,12.0,87,0.00,,,0.01,Wunderground v.1.15,2013-06-16 04:05:00,
2013-06-15 23:10:00,76.8,72.6,29.93,ESE,115,2.0,12.0,87,0.00,,,0.01,Wunderground v.1.15,2013-06-16 04:10:00,
2013-06-15 23:15:00,76.9,72.4,29.93,ESE,119,5.0,12.0,86,0.00,,,0.01,Wunderground v.1.15,2013-06-16 04:15:00,
2013-06-15 23:19:00,77.0,72.1,29.93,ESE,121,6.0,6.0,85,0.00,,,0.01,Wunderground v.1.15,2013-06-16 04:19:00,
2013-06-15 23:25:00,77.2,72.3,29.93,ESE,121,5.0,12.0,85,0.00,,,0.01,Wunderground v.1.15,2013-06-16 04:25:00,
2013-06-15 23:30:00,77.3,72.4,29.93,ESE,121,4.0,4.0,85,0.00,,,0.01,Wunderground v.1.15,2013-06-16 04:30:00,
2013-06-15 23:35:00,77.4,72.5,29.93,ESE,123,4.0,12.0,85,0.00,,,0.01,Wunderground v.1.15,2013-06-16 04:35:00,
2013-06-15 23:40:00,77.4,72.9,29.93,ESE,123,4.0,4.0,86,0.00,,,0.01,Wunderground v.1.15,2013-06-16 04:40:00,
2013-06-15 23:50:00,77.2,72.7,29.93,ESE,122,3.0,3.0,86,0.00,,,0.01,Wunderground v.1.15,2013-06-16 04:50:00,